UAL3603 KCLT-KBOS

Flight info

Callsign UAL3603
Flight time 1h 34m
Altitude 41000
Route BARMY5 RDU NOWAE Q87 GEARS BBOBO Q22 RBV Q419 JFK ROBUC3
Aircraft B772/H-SDE2E3FGHIJ5LORVWXY/LB1D1

Departure

Time 2026-05-07 23:19
Airport Charlotte Douglas International Airport (KCLT)

Arrival

Time 2026-05-08 00:53
Airport Boston Logan International Airport (KBOS)
Time Latitude Longitude Altitude Speed Heading
2026-05-07 22:55 35.20928 -80.93749 740 ft 0 kts 305°
2026-05-07 23:09 35.20926 -80.93745 740 ft 3 kts 306°
2026-05-07 23:09 35.20909 -80.93721 738 ft 4 kts 319°
2026-05-07 23:09 35.20888 -80.93702 739 ft 4 kts 334°
2026-05-07 23:10 35.20863 -80.93691 737 ft 4 kts 349°
2026-05-07 23:10 35.20840 -80.93687 738 ft 1 kts 356°
2026-05-07 23:15 35.20849 -80.93691 738 ft 3 kts 341°
2026-05-07 23:15 35.20878 -80.93702 738 ft 6 kts 347°
2026-05-07 23:15 35.20924 -80.93687 739 ft 8 kts 44°
2026-05-07 23:15 35.20923 -80.93623 736 ft 10 kts 144°
2026-05-07 23:16 35.20855 -80.93613 737 ft 10 kts 175°
2026-05-07 23:16 35.20761 -80.93603 742 ft 20 kts 176°
2026-05-07 23:16 35.20623 -80.93593 737 ft 20 kts 176°
2026-05-07 23:16 35.20485 -80.93582 737 ft 20 kts 175°
2026-05-07 23:17 35.20349 -80.93569 737 ft 20 kts 175°
2026-05-07 23:17 35.20210 -80.93557 737 ft 20 kts 176°
2026-05-07 23:17 35.20136 -80.93550 737 ft 3 kts 164°
2026-05-07 23:17 35.20119 -80.93532 737 ft 3 kts 129°
2026-05-07 23:18 35.20111 -80.93504 737 ft 5 kts 104°
2026-05-07 23:18 35.20115 -80.93440 738 ft 10 kts 53°
2026-05-07 23:18 35.20180 -80.93424 737 ft 13 kts 352°
2026-05-07 23:18 35.20505 -80.93450 740 ft 86 kts 356°
2026-05-07 23:19 35.21356 -80.93526 790 ft 153 kts 359°
2026-05-07 23:19 35.22474 -80.93606 1494 ft 164 kts 357°
2026-05-07 23:19 35.23667 -80.93403 2233 ft 177 kts 12°
2026-05-07 23:19 35.24908 -80.92991 2770 ft 197 kts 10°
2026-05-07 23:20 35.26289 -80.92465 2975 ft 220 kts 28°
2026-05-07 23:20 35.27326 -80.90982 3143 ft 248 kts 69°
2026-05-07 23:20 35.27685 -80.88900 3423 ft 265 kts 84°
2026-05-07 23:20 35.27858 -80.86559 3746 ft 286 kts 86°
2026-05-07 23:21 35.28013 -80.84107 4499 ft 290 kts 86°
2026-05-07 23:21 35.28184 -80.81619 5197 ft 297 kts 85°
2026-05-07 23:21 35.28380 -80.79070 5921 ft 303 kts 84°
2026-05-07 23:21 35.28596 -80.76501 6698 ft 305 kts 84°
2026-05-07 23:22 35.28830 -80.73887 7338 ft 312 kts 84°
2026-05-07 23:22 35.29080 -80.71224 8071 ft 316 kts 84°
2026-05-07 23:22 35.29338 -80.68536 8836 ft 321 kts 83°
2026-05-07 23:22 35.29605 -80.65800 9519 ft 328 kts 83°
2026-05-07 23:23 35.29880 -80.63003 10236 ft 332 kts 83°
2026-05-07 23:23 35.30165 -80.60113 10630 ft 353 kts 83°
2026-05-07 23:23 35.30466 -80.57069 11254 ft 365 kts 83°
2026-05-07 23:23 35.30772 -80.53993 12026 ft 373 kts 83°
2026-05-07 23:24 35.31085 -80.50828 13012 ft 377 kts 83°
2026-05-07 23:24 35.31403 -80.47619 13906 ft 382 kts 83°
2026-05-07 23:24 35.31724 -80.44356 14661 ft 390 kts 82°
2026-05-07 23:24 35.32052 -80.41025 15434 ft 397 kts 82°
2026-05-07 23:25 35.32384 -80.37636 16203 ft 405 kts 82°
2026-05-07 23:25 35.32722 -80.34180 16964 ft 412 kts 82°
2026-05-07 23:25 35.33066 -80.30657 17739 ft 419 kts 81°
2026-05-07 23:25 35.33414 -80.27082 18450 ft 427 kts 81°
2026-05-07 23:26 35.33766 -80.23451 19146 ft 432 kts 81°
2026-05-07 23:26 35.34120 -80.19780 19866 ft 436 kts 81°
2026-05-07 23:26 35.34476 -80.16073 20582 ft 441 kts 82°
2026-05-07 23:26 35.34835 -80.12320 21260 ft 447 kts 82°
2026-05-07 23:27 35.35561 -80.04694 22592 ft 459 kts 82°
2026-05-07 23:27 35.35931 -80.00789 23305 ft 464 kts 82°
2026-05-07 23:27 35.36305 -79.96840 23940 ft 469 kts 82°
2026-05-07 23:28 35.36681 -79.92850 24528 ft 474 kts 82°
2026-05-07 23:28 35.37060 -79.88817 25121 ft 479 kts 82°
2026-05-07 23:28 35.37579 -79.84771 25723 ft 482 kts 76°
2026-05-07 23:28 35.38405 -79.80778 26317 ft 485 kts 69°
2026-05-07 23:29 35.39514 -79.76868 26859 ft 489 kts 66°
2026-05-07 23:29 35.40692 -79.72921 27405 ft 495 kts 66°
2026-05-07 23:29 35.41888 -79.68944 27978 ft 499 kts 66°
2026-05-07 23:29 35.43085 -79.64927 28542 ft 504 kts 66°
2026-05-07 23:30 35.44280 -79.60864 29109 ft 510 kts 66°
2026-05-07 23:30 35.45479 -79.56737 29634 ft 515 kts 66°
2026-05-07 23:30 35.46680 -79.52574 30143 ft 520 kts 66°
2026-05-07 23:30 35.47888 -79.48368 30581 ft 524 kts 66°
2026-05-07 23:31 35.49106 -79.44122 30994 ft 530 kts 66°
2026-05-07 23:31 35.50333 -79.39841 31399 ft 534 kts 66°
2026-05-07 23:31 35.51152 -79.36981 31684 ft 537 kts 66°
2026-05-07 23:31 35.52392 -79.32645 32098 ft 540 kts 66°
2026-05-07 23:32 35.54047 -79.26852 32627 ft 546 kts 66°
2026-05-07 23:32 35.55305 -79.22442 32996 ft 550 kts 66°
2026-05-07 23:32 35.56575 -79.17984 33399 ft 553 kts 66°
2026-05-07 23:32 35.57470 -79.15058 33643 ft 552 kts 61°
2026-05-07 23:33 35.59239 -79.10829 33987 ft 547 kts 51°
2026-05-07 23:33 35.61361 -79.07042 34285 ft 543 kts 43°
2026-05-07 23:33 35.63813 -79.03557 34600 ft 534 kts 34°
2026-05-07 23:33 35.66552 -79.00523 34901 ft 530 kts 30°
2026-05-07 23:34 35.69372 -78.97575 35209 ft 532 kts 29°
2026-05-07 23:34 35.72203 -78.94625 35490 ft 535 kts 29°
2026-05-07 23:34 35.75034 -78.91633 35764 ft 539 kts 30°
2026-05-07 23:34 35.77867 -78.88587 36028 ft 542 kts 30°
2026-05-07 23:35 35.80698 -78.85508 36284 ft 544 kts 30°
2026-05-07 23:35 35.83531 -78.82412 36616 ft 545 kts 30°
2026-05-07 23:35 35.86365 -78.79318 37000 ft 543 kts 30°
2026-05-07 23:35 35.89203 -78.76247 37387 ft 540 kts 29°
2026-05-07 23:36 35.92049 -78.73240 37774 ft 538 kts 28°
2026-05-07 23:36 35.94911 -78.70258 38111 ft 537 kts 27°
2026-05-07 23:36 35.97775 -78.67284 38483 ft 541 kts 28°
2026-05-07 23:36 36.00671 -78.64280 38523 ft 547 kts 28°
2026-05-07 23:37 36.06541 -78.58139 38786 ft 555 kts 28°
2026-05-07 23:37 36.09473 -78.55042 39069 ft 554 kts 29°
2026-05-07 23:37 36.12394 -78.51948 39357 ft 552 kts 29°
2026-05-07 23:38 36.15310 -78.48858 39645 ft 552 kts 29°
2026-05-07 23:38 36.18222 -78.45776 39883 ft 551 kts 29°
2026-05-07 23:38 36.21136 -78.42692 40125 ft 551 kts 29°
2026-05-07 23:38 36.24051 -78.39606 40360 ft 551 kts 29°
2026-05-07 23:39 36.26962 -78.36522 40587 ft 551 kts 29°
2026-05-07 23:39 36.29878 -78.33427 40816 ft 551 kts 29°
2026-05-07 23:39 36.35714 -78.27226 40933 ft 553 kts 29°
2026-05-07 23:40 36.41452 -78.20940 40937 ft 555 kts 32°
2026-05-07 23:40 36.47025 -78.14298 40960 ft 555 kts 33°
2026-05-07 23:41 36.52577 -78.07623 40979 ft 554 kts 33°
2026-05-07 23:41 36.58152 -78.01012 41002 ft 553 kts 33°
2026-05-07 23:42 36.63742 -77.94412 40998 ft 554 kts 33°
2026-05-07 23:42 36.69332 -77.87789 40963 ft 555 kts 33°
2026-05-07 23:43 36.74922 -77.81141 40962 ft 556 kts 33°
2026-05-07 23:43 36.80520 -77.74474 40958 ft 556 kts 33°
2026-05-07 23:44 36.86118 -77.67815 40954 ft 556 kts 33°
2026-05-07 23:44 36.91722 -77.61139 40946 ft 557 kts 33°
2026-05-07 23:45 36.97319 -77.54451 40940 ft 557 kts 33°
2026-05-07 23:45 37.02914 -77.47750 40944 ft 557 kts 33°
2026-05-07 23:46 37.08701 -77.41457 40952 ft 540 kts 22°
2026-05-07 23:46 37.11808 -77.39003 40956 ft 529 kts 17°
2026-05-07 23:46 37.15046 -77.36902 40957 ft 519 kts 11°
2026-05-07 23:47 37.18361 -77.35278 40954 ft 507 kts
2026-05-07 23:47 37.21697 -77.33860 40947 ft 505 kts
2026-05-07 23:47 37.28328 -77.31108 40958 ft 506 kts
2026-05-07 23:48 37.35004 -77.28270 40930 ft 507 kts
2026-05-07 23:48 37.41685 -77.25368 40934 ft 508 kts
2026-05-07 23:49 37.48361 -77.22455 40928 ft 508 kts
2026-05-07 23:49 37.55056 -77.19532 40932 ft 509 kts
2026-05-07 23:50 37.61711 -77.16625 40935 ft 509 kts
2026-05-07 23:50 37.68409 -77.13645 40938 ft 514 kts
2026-05-07 23:51 37.71708 -77.11796 40930 ft 525 kts 15°
2026-05-07 23:51 37.74941 -77.09616 40941 ft 528 kts 17°
2026-05-07 23:51 37.81360 -77.05059 40946 ft 530 kts 18°
2026-05-07 23:52 37.87798 -77.00499 40943 ft 529 kts 18°
2026-05-07 23:52 37.94244 -76.96005 40946 ft 529 kts 18°
2026-05-07 23:53 38.00699 -76.91521 40942 ft 528 kts 18°
2026-05-07 23:53 38.07137 -76.87034 40935 ft 528 kts 18°
2026-05-07 23:54 38.13536 -76.82559 40932 ft 528 kts 18°
2026-05-07 23:54 38.19924 -76.78084 40920 ft 527 kts 19°
2026-05-07 23:55 38.26212 -76.73157 40912 ft 538 kts 28°
2026-05-07 23:55 38.31997 -76.66961 40910 ft 545 kts 33°
2026-05-07 23:56 38.37702 -76.60586 40914 ft 544 kts 32°
2026-05-07 23:56 38.43468 -76.54319 40923 ft 543 kts 32°
2026-05-07 23:57 38.49255 -76.48115 40921 ft 543 kts 32°
2026-05-07 23:57 38.55052 -76.41907 40904 ft 543 kts 32°
2026-05-07 23:58 38.60832 -76.35688 40908 ft 543 kts 32°
2026-05-07 23:58 38.66569 -76.29494 40913 ft 543 kts 32°
2026-05-07 23:59 38.72355 -76.23232 40914 ft 543 kts 32°
2026-05-07 23:59 38.78129 -76.16970 40913 ft 544 kts 32°
2026-05-08 00:00 38.83908 -76.10690 40914 ft 544 kts 32°
2026-05-08 00:00 38.89645 -76.04441 40915 ft 544 kts 33°
2026-05-08 00:01 38.95414 -75.98144 40906 ft 544 kts 33°
2026-05-08 00:01 39.01089 -75.91654 40901 ft 548 kts 36°
2026-05-08 00:02 39.06654 -75.84925 40884 ft 548 kts 36°
2026-05-08 00:02 39.12227 -75.78209 40881 ft 548 kts 36°
2026-05-08 00:03 39.17819 -75.71531 40878 ft 548 kts 36°
2026-05-08 00:03 39.23417 -75.64842 40877 ft 549 kts 36°
2026-05-08 00:04 39.28992 -75.58156 40872 ft 549 kts 36°
2026-05-08 00:04 39.34584 -75.51420 40873 ft 550 kts 36°
2026-05-08 00:05 39.40149 -75.44678 40872 ft 550 kts 36°
2026-05-08 00:05 39.45698 -75.37939 40876 ft 551 kts 36°
2026-05-08 00:06 39.51280 -75.31147 40871 ft 551 kts 36°
2026-05-08 00:06 39.56872 -75.24329 40869 ft 551 kts 36°
2026-05-08 00:07 39.62455 -75.17504 40861 ft 551 kts 36°
2026-05-08 00:07 39.67982 -75.10731 40778 ft 540 kts 36°
2026-05-08 00:08 39.70771 -75.07489 40580 ft 533 kts 33°
2026-05-08 00:08 39.73605 -75.04401 40287 ft 531 kts 32°
2026-05-08 00:08 39.76445 -75.01327 39926 ft 533 kts 32°
2026-05-08 00:08 39.79274 -74.98200 39542 ft 535 kts 33°
2026-05-08 00:09 39.82085 -74.95020 39174 ft 537 kts 34°
2026-05-08 00:09 39.84854 -74.91853 38836 ft 537 kts 34°
2026-05-08 00:09 39.87674 -74.88633 38465 ft 538 kts 34°
2026-05-08 00:09 39.90527 -74.85482 38029 ft 535 kts 30°
2026-05-08 00:10 39.93520 -74.82634 37597 ft 531 kts 26°
2026-05-08 00:10 39.96566 -74.79918 37196 ft 530 kts 26°
2026-05-08 00:10 39.99612 -74.77186 36870 ft 530 kts 26°
2026-05-08 00:10 40.02584 -74.74299 36874 ft 535 kts 32°
2026-05-08 00:11 40.07991 -74.67424 36865 ft 549 kts 42°
2026-05-08 00:11 40.12989 -74.59967 36875 ft 548 kts 43°
2026-05-08 00:12 40.18070 -74.52563 36857 ft 546 kts 41°
2026-05-08 00:12 40.23509 -74.45770 36864 ft 537 kts 32°
2026-05-08 00:13 40.29324 -74.39665 36873 ft 536 kts 31°
2026-05-08 00:13 40.35085 -74.33613 36424 ft 526 kts 31°
2026-05-08 00:14 40.37917 -74.30590 36067 ft 521 kts 31°
2026-05-08 00:14 40.40703 -74.27599 35709 ft 516 kts 31°
2026-05-08 00:14 40.43474 -74.24619 35345 ft 512 kts 31°
2026-05-08 00:14 40.46215 -74.21673 34966 ft 508 kts 31°
2026-05-08 00:15 40.48937 -74.18746 34597 ft 504 kts 31°
2026-05-08 00:15 40.51613 -74.15787 34203 ft 504 kts 36°
2026-05-08 00:15 40.53964 -74.12314 33834 ft 513 kts 48°
2026-05-08 00:15 40.55873 -74.08333 33405 ft 516 kts 58°
2026-05-08 00:16 40.57269 -74.04029 33005 ft 517 kts 70°
2026-05-08 00:16 40.58293 -73.99506 32622 ft 514 kts 72°
2026-05-08 00:16 40.59245 -73.94994 32249 ft 510 kts 73°
2026-05-08 00:16 40.60210 -73.90513 31877 ft 507 kts 72°
2026-05-08 00:17 40.61210 -73.86089 31511 ft 503 kts 71°
2026-05-08 00:17 40.62229 -73.81699 31129 ft 500 kts 71°
2026-05-08 00:17 40.63416 -73.77440 30743 ft 491 kts 59°
2026-05-08 00:17 40.65293 -73.73796 30388 ft 470 kts 40°
2026-05-08 00:18 40.67481 -73.70722 30087 ft 464 kts 39°
2026-05-08 00:18 40.69696 -73.67627 29706 ft 462 kts 39°
2026-05-08 00:18 40.71850 -73.64571 29299 ft 459 kts 40°
2026-05-08 00:18 40.73999 -73.61472 28881 ft 456 kts 41°
2026-05-08 00:19 40.76118 -73.58380 28510 ft 453 kts 41°
2026-05-08 00:19 40.78219 -73.55295 28131 ft 449 kts 41°
2026-05-08 00:19 40.80296 -73.52239 27761 ft 446 kts 42°
2026-05-08 00:19 40.82361 -73.49203 27394 ft 443 kts 42°
2026-05-08 00:20 40.83751 -73.47158 27148 ft 441 kts 42°
2026-05-08 00:20 40.86344 -73.43343 26715 ft 439 kts 42°
2026-05-08 00:20 40.88402 -73.40314 26539 ft 450 kts 42°
2026-05-08 00:20 40.90520 -73.37199 26311 ft 457 kts 43°
2026-05-08 00:21 40.92642 -73.34065 26063 ft 457 kts 43°
2026-05-08 00:21 40.94070 -73.31949 25890 ft 456 kts 43°
2026-05-08 00:21 40.96178 -73.28821 25647 ft 454 kts 43°
2026-05-08 00:21 40.98279 -73.25702 25416 ft 453 kts 43°
2026-05-08 00:22 41.00366 -73.22602 25192 ft 451 kts 44°
2026-05-08 00:22 41.02450 -73.19505 24955 ft 449 kts 44°
2026-05-08 00:22 41.04528 -73.16414 24737 ft 448 kts 44°
2026-05-08 00:22 41.06595 -73.13339 24506 ft 446 kts 44°
2026-05-08 00:23 41.08658 -73.10266 24278 ft 445 kts 44°
2026-05-08 00:23 41.10712 -73.07202 24052 ft 444 kts 44°
2026-05-08 00:23 41.12763 -73.04140 23831 ft 443 kts 44°
2026-05-08 00:23 41.14806 -73.01087 23596 ft 442 kts 44°
2026-05-08 00:24 41.16817 -72.98078 23353 ft 441 kts 45°
2026-05-08 00:24 41.18878 -72.94992 23107 ft 439 kts 45°
2026-05-08 00:24 41.20858 -72.91993 22845 ft 438 kts 48°
2026-05-08 00:24 41.22524 -72.88625 22726 ft 434 kts 60°
2026-05-08 00:25 41.23894 -72.85067 22643 ft 430 kts 63°
2026-05-08 00:25 41.25195 -72.81471 22547 ft 439 kts 64°
2026-05-08 00:25 41.26553 -72.77701 22470 ft 459 kts 64°
2026-05-08 00:25 41.27954 -72.73872 22367 ft 463 kts 63°
2026-05-08 00:26 41.29384 -72.70033 22235 ft 463 kts 63°
2026-05-08 00:26 41.30825 -72.66212 22115 ft 461 kts 63°
2026-05-08 00:26 41.32266 -72.62419 22019 ft 459 kts 63°
2026-05-08 00:26 41.33707 -72.58636 21903 ft 457 kts 63°
2026-05-08 00:27 41.35146 -72.54854 21804 ft 456 kts 63°
2026-05-08 00:27 41.36574 -72.51093 21707 ft 456 kts 63°
2026-05-08 00:27 41.37984 -72.47372 21590 ft 455 kts 63°
2026-05-08 00:27 41.39404 -72.43618 21481 ft 454 kts 63°
2026-05-08 00:28 41.40827 -72.39848 21384 ft 454 kts 63°
2026-05-08 00:28 41.42245 -72.36086 21285 ft 454 kts 63°
2026-05-08 00:28 41.43659 -72.32329 21168 ft 454 kts 63°
2026-05-08 00:28 41.45076 -72.28561 21058 ft 454 kts 63°
2026-05-08 00:29 41.46491 -72.24795 20936 ft 454 kts 63°
2026-05-08 00:29 41.47903 -72.21033 20827 ft 454 kts 63°
2026-05-08 00:29 41.49310 -72.17238 20520 ft 458 kts 64°
2026-05-08 00:29 41.50703 -72.13425 20196 ft 455 kts 64°
2026-05-08 00:30 41.52074 -72.09658 19878 ft 449 kts 64°
2026-05-08 00:30 41.53435 -72.05923 19573 ft 444 kts 64°
2026-05-08 00:30 41.54779 -72.02239 19266 ft 440 kts 64°
2026-05-08 00:30 41.56094 -71.98560 18971 ft 438 kts 67°
2026-05-08 00:31 41.57242 -71.94810 18673 ft 435 kts 70°
2026-05-08 00:31 41.58323 -71.91042 18360 ft 434 kts 71°
2026-05-08 00:31 41.59415 -71.87287 18062 ft 433 kts 70°
2026-05-08 00:31 41.60519 -71.83545 17731 ft 432 kts 70°
2026-05-08 00:32 41.61620 -71.79821 17411 ft 429 kts 70°
2026-05-08 00:32 41.62712 -71.76127 17103 ft 427 kts 69°
2026-05-08 00:32 41.63797 -71.72447 16805 ft 424 kts 69°
2026-05-08 00:32 41.64874 -71.68793 16635 ft 417 kts 69°
2026-05-08 00:33 41.65932 -71.65197 16392 ft 414 kts 69°
2026-05-08 00:33 41.66964 -71.61683 16125 ft 409 kts 69°
2026-05-08 00:33 41.67993 -71.58171 15825 ft 402 kts 69°
2026-05-08 00:33 41.69004 -71.54718 15554 ft 396 kts 69°
2026-05-08 00:34 41.70001 -71.51308 15285 ft 390 kts 69°
2026-05-08 00:34 41.70980 -71.47957 15016 ft 383 kts 69°
2026-05-08 00:34 41.71943 -71.44654 14754 ft 378 kts 68°
2026-05-08 00:34 41.72973 -71.41439 14495 ft 373 kts 61°
2026-05-08 00:35 41.74251 -71.38440 14251 ft 369 kts 56°
2026-05-08 00:35 41.75585 -71.35528 13998 ft 366 kts 56°
2026-05-08 00:35 41.76883 -71.32611 13746 ft 363 kts 57°
2026-05-08 00:35 41.78142 -71.29697 13479 ft 360 kts 58°
2026-05-08 00:36 41.79380 -71.26795 13210 ft 357 kts 58°
2026-05-08 00:36 41.80605 -71.23914 12944 ft 354 kts 58°
2026-05-08 00:36 41.81819 -71.21059 12688 ft 351 kts 58°
2026-05-08 00:36 41.83021 -71.18231 12453 ft 348 kts 58°
2026-05-08 00:37 41.84217 -71.15417 12198 ft 345 kts 58°
2026-05-08 00:37 41.85394 -71.12643 11966 ft 339 kts 58°
2026-05-08 00:37 41.86559 -71.09923 11760 ft 332 kts 57°
2026-05-08 00:38 41.88846 -71.04638 11374 ft 327 kts 57°
2026-05-08 00:38 41.89984 -71.02009 11176 ft 324 kts 57°
2026-05-08 00:38 41.91113 -70.99398 10982 ft 322 kts 57°
2026-05-08 00:38 41.92232 -70.96804 10784 ft 320 kts 57°
2026-05-08 00:39 41.93341 -70.94229 10603 ft 318 kts 57°
2026-05-08 00:39 41.94444 -70.91666 10411 ft 316 kts 57°
2026-05-08 00:39 41.95543 -70.89109 10215 ft 314 kts 57°
2026-05-08 00:39 41.96626 -70.86586 10012 ft 309 kts 57°
2026-05-08 00:40 41.97691 -70.84103 9822 ft 303 kts 57°
2026-05-08 00:40 41.98733 -70.81673 9645 ft 298 kts 57°
2026-05-08 00:40 41.99760 -70.79278 9438 ft 294 kts 57°
2026-05-08 00:40 42.00798 -70.76936 9199 ft 287 kts 50°
2026-05-08 00:41 42.02214 -70.75153 8777 ft 281 kts 31°
2026-05-08 00:41 42.03885 -70.73741 8443 ft 279 kts 27°
2026-05-08 00:41 42.05533 -70.72452 8162 ft 276 kts 26°
2026-05-08 00:41 42.07190 -70.71179 7972 ft 270 kts 26°
2026-05-08 00:42 42.08788 -70.69956 7897 ft 259 kts 26°
2026-05-08 00:42 42.10310 -70.68789 7700 ft 245 kts 26°
2026-05-08 00:42 42.11778 -70.67666 7435 ft 241 kts 26°
2026-05-08 00:42 42.13227 -70.66566 7222 ft 237 kts 26°
2026-05-08 00:43 42.14660 -70.65486 6981 ft 235 kts 26°
2026-05-08 00:43 42.16088 -70.64418 6735 ft 234 kts 26°
2026-05-08 00:43 42.17506 -70.63366 6477 ft 232 kts 26°
2026-05-08 00:43 42.18916 -70.62329 6211 ft 230 kts 26°
2026-05-08 00:44 42.20323 -70.61314 5910 ft 226 kts 21°
2026-05-08 00:44 42.21835 -70.60930 5466 ft 223 kts 349°
2026-05-08 00:44 42.23288 -70.61530 5150 ft 217 kts 336°
2026-05-08 00:44 42.24656 -70.62254 5043 ft 211 kts 336°
2026-05-08 00:45 42.26019 -70.62977 4990 ft 210 kts 336°
2026-05-08 00:45 42.27391 -70.63709 4986 ft 214 kts 336°
2026-05-08 00:45 42.28790 -70.64459 4981 ft 217 kts 336°
2026-05-08 00:45 42.30190 -70.65210 4975 ft 216 kts 336°
2026-05-08 00:46 42.31583 -70.65957 4965 ft 215 kts 336°
2026-05-08 00:46 42.32965 -70.66696 4876 ft 211 kts 336°
2026-05-08 00:46 42.34318 -70.67418 4447 ft 210 kts 336°
2026-05-08 00:46 42.35689 -70.68149 4031 ft 213 kts 336°
2026-05-08 00:47 42.37068 -70.68885 3828 ft 212 kts 336°
2026-05-08 00:47 42.38356 -70.69752 3603 ft 203 kts 316°
2026-05-08 00:47 42.39077 -70.71288 3520 ft 189 kts 290°
2026-05-08 00:47 42.39456 -70.72947 3461 ft 181 kts 286°
2026-05-08 00:48 42.39779 -70.74535 3437 ft 169 kts 284°
2026-05-08 00:48 42.39814 -70.76073 3212 ft 166 kts 265°
2026-05-08 00:48 42.39668 -70.77616 3078 ft 159 kts 264°
2026-05-08 00:48 42.39474 -70.79065 2978 ft 156 kts 261°
2026-05-08 00:49 42.39244 -70.80476 2772 ft 155 kts 261°
2026-05-08 00:49 42.39001 -70.81884 2543 ft 151 kts 260°
2026-05-08 00:49 42.38765 -70.83225 2348 ft 142 kts 261°
2026-05-08 00:49 42.38544 -70.84476 2156 ft 132 kts 261°
2026-05-08 00:50 42.38337 -70.85651 2013 ft 129 kts 261°
2026-05-08 00:50 42.38127 -70.86844 1842 ft 130 kts 261°
2026-05-08 00:50 42.37917 -70.88035 1656 ft 130 kts 261°
2026-05-08 00:50 42.37710 -70.89208 1464 ft 128 kts 261°
2026-05-08 00:51 42.37503 -70.90385 1293 ft 130 kts 260°
2026-05-08 00:51 42.37292 -70.91580 1111 ft 131 kts 260°
2026-05-08 00:51 42.37081 -70.92776 942 ft 132 kts 259°
2026-05-08 00:51 42.36867 -70.93985 767 ft 132 kts 259°
2026-05-08 00:52 42.36661 -70.95150 593 ft 124 kts 259°
2026-05-08 00:52 42.36463 -70.96270 429 ft 124 kts 258°
2026-05-08 00:52 42.36267 -70.97430 281 ft 129 kts 258°
2026-05-08 00:52 42.36049 -70.98569 101 ft 120 kts 260°
2026-05-08 00:53 42.35878 -70.99583 30 ft 97 kts 257°
2026-05-08 00:53 42.35758 -71.00266 30 ft 53 kts 256°
2026-05-08 00:53 42.35694 -71.00625 30 ft 34 kts 256°
2026-05-08 00:53 42.35643 -71.00912 30 ft 30 kts 258°
2026-05-08 00:54 42.35669 -71.01170 30 ft 23 kts 300°
2026-05-08 00:54 42.35733 -71.01257 30 ft 12 kts 338°
2026-05-08 00:54 42.35793 -71.01247 30 ft 5 kts 20°
2026-05-08 00:54 42.35829 -71.01242 30 ft 5 kts 342°
2026-05-08 00:55 42.35841 -71.01263 30 ft 0 kts 299°
2026-05-08 00:58 42.35848 -71.01292 30 ft 6 kts 285°
2026-05-08 00:58 42.35861 -71.01351 30 ft 8 kts 296°
2026-05-08 00:59 42.35926 -71.01382 30 ft 12 kts 15°
2026-05-08 00:59 42.36020 -71.01333 30 ft 16 kts 20°
2026-05-08 00:59 42.36124 -71.01281 30 ft 16 kts 20°
2026-05-08 00:59 42.36191 -71.01248 30 ft 5 kts 20°
2026-05-08 01:00 42.36194 -71.01247 30 ft 0 kts 20°
2026-05-08 01:00 42.36239 -71.01225 30 ft 14 kts 20°
2026-05-08 01:01 42.36333 -71.01179 30 ft 14 kts 20°
2026-05-08 01:01 42.36428 -71.01133 30 ft 14 kts 19°
2026-05-08 01:01 42.36514 -71.01106 30 ft 11 kts 347°
2026-05-08 01:01 42.36556 -71.01188 30 ft 11 kts 289°
2026-05-08 01:02 42.36596 -71.01274 30 ft 11 kts 333°
2026-05-08 01:02 42.36674 -71.01260 30 ft 12 kts 13°
2026-05-08 01:02 42.36764 -71.01255 30 ft 17 kts 341°
2026-05-08 01:02 42.36858 -71.01365 30 ft 18 kts 315°
2026-05-08 01:03 42.36948 -71.01487 30 ft 18 kts 311°
2026-05-08 01:03 42.37037 -71.01609 30 ft 18 kts 315°
2026-05-08 01:03 42.37118 -71.01742 29 ft 18 kts 301°
2026-05-08 01:03 42.37186 -71.01885 30 ft 18 kts 304°
2026-05-08 01:04 42.37235 -71.02042 30 ft 18 kts 278°
2026-05-08 01:04 42.37190 -71.02192 30 ft 18 kts 220°
2026-05-08 01:04 42.37150 -71.02339 30 ft 18 kts 294°
2026-05-08 01:04 42.37232 -71.02459 30 ft 15 kts 314°
2026-05-08 01:05 42.37256 -71.02493 29 ft 0 kts 311°
2026-05-08 01:06 42.37283 -71.02534 30 ft 13 kts 312°
2026-05-08 01:07 42.37307 -71.02580 30 ft 7 kts 260°
2026-05-08 01:07 42.37283 -71.02625 30 ft 7 kts 224°
2026-05-08 01:07 42.37264 -71.02648 30 ft 0 kts 221°